Location: Podia
(1.5569°N, 32.3469°E)
Time: 20:17:56
(UTC+00:00)

S-56A Canister/Altair - Pass Details

Date: 05 October 2020
Orbit: 632 x 2500 km, 38.9° (Epoch: 20 October)

Event Time Altitude Azimuth Distance (km) Brightness Sun altitude
Rises 15:52:27 0° 329° (NNW) 5,949 12.4 -3.5°
Reaches altitude 10° 15:58:18 10° 345° (NNW) 4,682 11.7 -5.0°
Maximum altitude 16:06:30 20° 26° (NNE) 3,451 10.6 -7.0°
Drops below altitude 10° 16:13:04 10° 68° (ENE) 3,664 10.4 -8.7°
Enters shadow 16:13:35 - 71° (ENE) 3,737 10.4 -8.8°
